This is the latest recevied weather packets stored in our database for station/object IR1BY-3. If no packets are shown the sender has not sent any weather packets the latest 10 day(s).
| Time | Temp. | Humidity | Pressure | Rain* | Wind** | Luminosity | Snow |
|---|---|---|---|---|---|---|---|
| 1777448174 | 20° C | 99% | 1015.6 hPa | - | - | - | - |
| 1777446374 | 17.22° C | 99% | 1015.6 hPa | - | - | - | - |
| 1777444573 | 14.44° C | 99% | 1015.4 hPa | - | - | - | - |
| 1777442773 | 11.67° C | 99% | 1015.2 hPa | - | - | - | - |
| 1777440973 | 11.11° C | 99% | 1015.2 hPa | - | - | - | - |
| 1777439172 | 10.56° C | 99% | 1015.1 hPa | - | - | - | - |
| 1777437372 | 10° C | 99% | 1015 hPa | - | - | - | - |
| 1777435572 | 10° C | 99% | 1014.8 hPa | - | - | - | - |
| 1777433771 | 10° C | 99% | 1014.9 hPa | - | - | - | - |
| 1777431971 | 10.56° C | 99% | 1015.1 hPa | - | - | - | - |
| 1777430171 | 10.56° C | 99% | 1015.1 hPa | - | - | - | - |
| 1777428370 | 9.44° C | 99% | 1015 hPa | - | - | - | - |
| 1777426570 | 10° C | 99% | 1014.9 hPa | - | - | - | - |
| 1777424770 | 10° C | 99% | 1015 hPa | - | - | - | - |
| 1777422969 | 8.89° C | 99% | 1014.9 hPa | - | - | - | - |
| 1777421169 | 8.89° C | 99% | 1014.9 hPa | - | - | - | - |
| 1777419369 | 9.44° C | 99% | 1014.8 hPa | - | - | - | - |
| 1777417569 | 8.89° C | 99% | 1014.9 hPa | - | - | - | - |
| 1777415768 | 9.44° C | 99% | 1014.6 hPa | - | - | - | - |
| 1777413963 | 10° C | 99% | 1014.5 hPa | - | - | - | - |
| 1777412162 | 10° C | 99% | 1014.5 hPa | - | - | - | - |
| 1777410362 | 10° C | 99% | 1014.4 hPa | - | - | - | - |
| 1777408562 | 10° C | 99% | 1014.4 hPa | - | - | - | - |
| 1777406761 | 10.56° C | 99% | 1014.7 hPa | - | - | - | - |
| 1777404961 | 11.11° C | 99% | 1014.6 hPa | - | - | - | - |
* Rain since midnight (hover to see other rain measurements)
** Current wind speed in m/s (hover to see current wind gust speed)